TimePDT,TemperatureF,Dew PointF,Humidity,Sea Level PressureIn,VisibilityMPH,Wind Direction,Wind SpeedMPH,Gust SpeedMPH,PrecipitationIn,Events,Conditions,WindDirDegrees,DateUTC
12:27 AM,37.4,30.2,75,29.93,4.0,South,10.4,21.9,0.00,Snow,Light Snow,170,2012-03-14 07:27:00
12:53 AM,37.0,30.9,79,29.88,3.0,South,4.6,18.4,0.01,Snow,Light Snow,180,2012-03-14 07:53:00
1:24 AM,37.4,32.0,81,29.92,5.0,SSE,4.6,-,0.00,Rain,Light Rain,150,2012-03-14 08:24:00
1:31 AM,37.4,30.2,75,29.92,3.0,Variable,5.8,-,0.01,Snow,Light Snow,0,2012-03-14 08:31:00
1:40 AM,37.4,30.2,75,29.92,2.5,SSE,9.2,-,0.01,Snow,Light Snow,150,2012-03-14 08:40:00
1:49 AM,37.4,30.2,75,29.92,3.0,South,10.4,21.9,0.01,Snow,Light Snow,170,2012-03-14 08:49:00
1:53 AM,37.9,30.9,76,29.87,4.0,Variable,6.9,18.4,0.01,Snow,Light Snow,0,2012-03-14 08:53:00
2:53 AM,37.0,30.9,79,29.87,2.5,Calm,Calm,-,0.03,Snow,Light Snow,0,2012-03-14 09:53:00
3:28 AM,37.4,30.2,75,29.91,3.0,Calm,Calm,-,0.02,Snow,Light Snow,0,2012-03-14 10:28:00
3:47 AM,37.4,30.2,75,29.91,2.5,East,4.6,-,0.03,Snow,Light Snow,90,2012-03-14 10:47:00
3:53 AM,37.0,30.9,79,29.87,2.5,SE,6.9,-,0.03,Snow,Light Snow,130,2012-03-14 10:53:00
3:55 AM,37.4,30.2,75,29.91,3.0,East,5.8,-,0.01,Snow,Light Snow,100,2012-03-14 10:55:00
4:10 AM,37.4,30.2,75,29.91,2.5,ESE,5.8,-,0.01,Snow,Light Snow,110,2012-03-14 11:10:00
4:32 AM,37.4,30.2,75,29.91,3.0,East,5.8,-,0.03,Snow,Light Snow,90,2012-03-14 11:32:00
4:53 AM,37.0,32.0,82,29.87,2.5,Variable,5.8,-,0.04,Snow,Light Snow,0,2012-03-14 11:53:00
5:25 AM,37.4,32.0,81,29.91,3.0,SE,4.6,-,0.03,Snow,Light Snow,130,2012-03-14 12:25:00
5:53 AM,37.0,32.0,82,29.88,2.5,Variable,5.8,18.4,0.05,Snow,Light Snow,0,2012-03-14 12:53:00
6:19 AM,37.4,32.0,81,29.93,3.0,ESE,8.1,-,0.02,Snow,Light Snow,110,2012-03-14 13:19:00
6:40 AM,37.4,32.0,81,29.95,3.0,Variable,4.6,-,0.03,Rain,Light Rain,0,2012-03-14 13:40:00
6:53 AM,37.0,30.9,79,29.91,3.0,South,9.2,-,0.04,Snow,Light Snow,190,2012-03-14 13:53:00
7:19 AM,37.4,32.0,81,29.95,5.0,South,5.8,-,0.02,Snow,Light Snow,190,2012-03-14 14:19:00
7:40 AM,37.4,30.2,75,29.96,3.0,SSE,9.2,20.7,0.03,Snow,Light Snow,160,2012-03-14 14:40:00
7:53 AM,37.0,32.0,82,29.93,3.0,SSE,8.1,17.3,0.03,Snow,Light Snow,160,2012-03-14 14:53:00
8:01 AM,37.4,32.0,81,29.96,2.5,South,9.2,-,0.01,Snow,Light Snow,180,2012-03-14 15:01:00
8:28 AM,37.4,30.2,75,29.98,3.0,South,8.1,16.1,0.03,Snow,Light Snow,190,2012-03-14 15:28:00
8:53 AM,37.9,32.0,79,29.96,4.0,South,9.2,-,0.04,Rain,Light Rain,180,2012-03-14 15:53:00
9:07 AM,39.2,32.0,75,30.00,5.0,Variable,5.8,16.1,0.00,Rain,Light Rain,0,2012-03-14 16:07:00
9:15 AM,37.4,32.0,81,30.00,4.0,SSE,6.9,-,0.00,Rain,Light Rain,150,2012-03-14 16:15:00
9:33 AM,37.4,32.0,81,30.01,5.0,South,6.9,-,0.01,Rain,Light Rain,180,2012-03-14 16:33:00
9:53 AM,39.0,32.0,76,29.98,6.0,South,9.2,-,0.01,Rain,Light Rain,180,2012-03-14 16:53:00
10:53 AM,39.9,33.1,77,29.99,6.0,South,9.2,-,0.01,Rain,Light Rain,190,2012-03-14 17:53:00
11:53 AM,41.0,34.0,76,30.00,5.0,South,11.5,27.6,0.01,Rain,Light Rain,190,2012-03-14 18:53:00
12:41 PM,42.8,35.6,76,30.05,8.0,South,15.0,21.9,0.01,Rain,Light Rain,190,2012-03-14 19:41:00
12:53 PM,42.1,35.1,76,30.00,6.0,South,16.1,23.0,0.01,Rain,Light Rain,180,2012-03-14 19:53:00
1:05 PM,42.8,33.8,70,30.05,5.0,South,12.7,20.7,0.01,Rain,Light Rain,190,2012-03-14 20:05:00
1:53 PM,43.0,36.0,76,30.00,7.0,South,15.0,20.7,0.02,Rain,Light Rain,180,2012-03-14 20:53:00
2:07 PM,42.8,35.6,76,30.06,5.0,South,13.8,25.3,0.00,Rain,Light Rain,190,2012-03-14 21:07:00
2:53 PM,42.1,35.1,76,30.01,5.0,South,13.8,25.3,0.01,Rain,Light Rain,190,2012-03-14 21:53:00
3:25 PM,42.8,35.6,76,30.06,7.0,South,16.1,26.5,0.00,Rain,Light Rain,190,2012-03-14 22:25:00
3:53 PM,42.1,35.1,76,30.01,7.0,SSW,15.0,23.0,0.00,Rain,Light Rain,200,2012-03-14 22:53:00
4:39 PM,42.8,33.8,70,30.06,7.0,South,15.0,26.5,0.01,Rain,Light Rain,190,2012-03-14 23:39:00
4:53 PM,42.1,35.1,76,30.01,7.0,South,12.7,-,0.01,Rain,Light Rain,190,2012-03-14 23:53:00
5:20 PM,42.8,33.8,70,30.06,10.0,SSW,12.7,23.0,0.00,Rain,Light Rain,200,2012-03-15 00:20:00
5:48 PM,42.8,33.8,70,30.07,10.0,South,16.1,21.9,0.00,Rain,Light Rain,190,2012-03-15 00:48:00
5:53 PM,42.1,34.0,73,30.03,10.0,SSW,15.0,25.3,0.00,Rain,Light Rain,200,2012-03-15 00:53:00
6:53 PM,41.0,34.0,76,30.04,5.0,South,15.0,21.9,0.00,Rain,Light Rain,190,2012-03-15 01:53:00
7:03 PM,41.0,33.8,76,30.09,3.0,South,15.0,21.9,0.00,Rain,Light Rain,190,2012-03-15 02:03:00
7:53 PM,39.0,34.0,82,30.08,3.0,South,9.2,-,0.00,Rain,Light Rain,170,2012-03-15 02:53:00
8:12 PM,39.2,33.8,81,30.11,5.0,South,6.9,-,0.00,Rain,Light Rain,180,2012-03-15 03:12:00
8:24 PM,39.2,35.6,87,30.12,4.0,South,4.6,-,0.00,Rain,Light Rain,170,2012-03-15 03:24:00
8:49 PM,39.2,35.6,87,30.12,5.0,South,6.9,-,0.01,Rain,Light Rain,180,2012-03-15 03:49:00
8:53 PM,39.0,35.1,86,30.09,5.0,South,5.8,-,0.01,Rain,Light Rain,180,2012-03-15 03:53:00
9:22 PM,39.2,35.6,87,30.13,4.0,SSE,3.5,-,0.00,Rain,Light Rain,160,2012-03-15 04:22:00
9:43 PM,39.2,35.6,87,30.13,5.0,South,5.8,-,0.01,Rain,Light Rain,190,2012-03-15 04:43:00
9:53 PM,39.0,35.1,86,30.10,5.0,Variable,4.6,-,0.01,Rain,Light Rain,0,2012-03-15 04:53:00
10:01 PM,39.2,35.6,87,30.14,4.0,SSW,5.8,-,0.00,Rain,Light Rain,200,2012-03-15 05:01:00
10:53 PM,39.0,35.1,86,30.10,4.0,South,3.5,-,0.02,Rain,Light Rain,180,2012-03-15 05:53:00
11:26 PM,39.2,35.6,87,30.14,5.0,SSW,3.5,-,0.02,Rain,Light Rain,200,2012-03-15 06:26:00
11:53 PM,39.0,35.1,86,30.09,7.0,SSW,4.6,-,0.03,Rain,Light Rain,210,2012-03-15 06:53:00